Terminal Aerodrome Forecast
Issued by NWS Grand Junction, CO

Home | Current Version | Previous Version | Text Only | Print | Product List | Glossary On
Versions: 1 2 3 4 5 6 7 8 9 10 11 12
000
FTUS45 KGJT 110520
TAFGJT
TAF
KGJT 110520Z 1106/1206 11007KT P6SM SKC
     FM112000 31005KT P6SM FEW250
     FM120300 06005KT P6SM SKC=

USA.gov is the U.S. government's official web portal to all federal, state and local government web resources and services.